Station ORIN7 - 8652587 - Oregon Inlet Marina, NC Image indicating link to RSS feed of recent meteorological observations for station ORIN7


Conditions at ORIN7 as of
(6:54 pm EDT)
2254 GMT on 05/19/2024:
     

Click on the graph icon in the table below to see a time series plot of the last five days of that observation.

5-day plot - Wind Direction Wind Direction (WDIR):NNE ( 20 deg true )
5-day plot - Wind Speed Wind Speed (WSPD): 12.0 kts
5-day plot - Wind Gust Wind Gust (GST): 19.0 kts
5-day plot - Water Temperature Water Temperature (WTMP): 66.7 °F
5-day plot - Wind Speed at 10 Meters Wind Speed at 10 meters (WSPD10M): 13.6 kts
5-day plot - Wind Speed at 20 Meters Wind Speed at 20 meters (WSPD20M): 13.6 kts
5-day plot -  Wind Speed, Wind Gust and Atmospheric Pressure Combined plot of Wind Speed, Gust, and Air Pressure
NOS Water Level Observation Network Water Level
Previous observations
TIME
(EDT)
5-day plot - Wind Direction
WDIR
 
5-day plot - Wind Speed
WSPD
kts
5-day plot - Wind Gust
GST
kts
5-day plot - Wave Height
WVHT
ft
5-day plot - Dominant Wave Period
DPD
sec
5-day plot - Average Wave Period
APD
sec
5-day plot - Mean Wave Direction
MWD
 
5-day plot - Atmospheric Pressure
PRES
in
5-day plot - Pressure Tendency
PTDY
in
5-day plot - Air Temperature
ATMP
°F
5-day plot - Water Temperature
WTMP
°F
5-day plot - Dew Point
DEWP
°F
5-day plot - Salinity
SAL
psu
5-day plot - Visibility
VIS
nmi
5-day plot - Tide (above MLLW)
TIDE
ft
2024-05-19 06:48 pmNNE 12.0 18.1----29.97-- 66.9----
2024-05-19 06:42 pmNNE 11.1 17.1----29.97-- 66.9----
2024-05-19 06:36 pmNNE 11.1 17.1----29.97-- 66.9----
2024-05-19 06:30 pmNNE 14.0 20.0----29.96-- 66.9----
2024-05-19 06:24 pmNNE 12.0 20.0----29.96-- 66.9----
2024-05-19 06:18 pm-------29.96- 57.4 66.9----
2024-05-19 06:12 pm-------29.96- 57.2 66.9----
2024-05-19 06:06 pm-------29.96- 57.4 66.9----
2024-05-19 06:00 pmNNE 13.0 21.0----29.96+0.00 57.9 66.9----
2024-05-19 05:54 pmNNE 15.9 22.0----29.96- 58.1 66.9----
2024-05-19 05:48 pmNNE 14.0 21.0----29.96- 57.7 66.9----
2024-05-19 05:42 pmNNE 15.9 22.0----29.96- 57.9 66.9----
2024-05-19 05:36 pm N 17.1 22.0----29.96- 57.6 66.9----
2024-05-19 05:30 pmNNE 15.0 21.0----29.96- 57.6 66.9----
2024-05-19 05:24 pmNNE 14.0 21.0----29.96- 57.7 66.9----
2024-05-19 05:18 pmNNE 15.9 22.0----29.96- 57.6 66.9----
2024-05-19 05:12 pmNNE 13.0 21.0----29.96- 57.7 66.9----
2024-05-19 05:06 pmNNE 13.0 20.0----29.97- 57.9 66.9----
2024-05-19 05:00 pmNNE 12.0 19.0----29.97-0.01 57.9 66.9----
2024-05-19 04:54 pmNNE 13.0 22.0----29.96- 57.9 66.9----
2024-05-19 04:48 pmNNE 13.0 19.0----29.96- 58.1 66.9----
2024-05-19 04:42 pmNNE 17.1 21.0----29.96- 57.7 66.9----
2024-05-19 04:36 pmNNE 14.0 19.0----29.96- 58.1 66.9----
2024-05-19 04:30 pmNNE 15.9 21.0----29.97- 57.9 66.9----
2024-05-19 04:24 pmNNE 15.9 22.9----29.97- 58.1 66.9----
2024-05-19 04:18 pmNNE 14.0 24.1----29.97- 58.5 66.9----
2024-05-19 04:12 pmNNE 15.0 22.9----29.97- 58.6 66.9----
2024-05-19 04:06 pmNNE 14.0 22.9----29.96- 58.6 66.9----
2024-05-19 04:00 pmNNE 15.0 22.0----29.96-0.03- 66.9----
2024-05-19 03:54 pmNNE 17.1 24.1----29.96-- 66.9----
2024-05-19 03:48 pmNNE 15.9 24.1----29.96-- 66.9----
2024-05-19 03:42 pmNNE 15.9 25.1----29.96-- 66.9----
2024-05-19 03:36 pmNNE 17.1 24.1----29.96-- 66.9----
2024-05-19 03:30 pm N 17.1 25.1----29.96- 58.6 66.9----
2024-05-19 03:24 pmNNE 15.0 22.0----29.96- 59.4 66.9----
2024-05-19 03:18 pmNNE 15.0 22.9----29.96- 59.4 66.7----
2024-05-19 03:12 pmNNE 13.0 24.1----29.96- 59.5 66.7----
2024-05-19 03:06 pm N 17.1 25.1----29.96- 59.4 66.7----
2024-05-19 03:00 pm N 17.1 24.1----29.96-0.02- 66.7----
2024-05-19 02:54 pmNNE 15.9 22.0----29.96-- 66.7----
2024-05-19 02:48 pmNNE 15.0 22.9----29.97- 59.9 66.7----
2024-05-19 02:42 pmNNE 14.0 22.9----29.97- 59.4 66.7----
2024-05-19 02:36 pm N 17.1 22.9----29.98- 59.2 66.6----
2024-05-19 02:30 pmNNE 15.9 22.9----29.98- 59.0 66.6----
2024-05-19 02:24 pmNNE 15.9 21.0----29.98- 59.4 66.6----
2024-05-19 02:18 pmNNE 13.0 18.1----29.98- 59.2 66.6----
2024-05-19 02:12 pm N 15.9 21.0----29.98- 59.0 66.6----
2024-05-19 02:06 pm N 15.0 22.9----29.98- 59.5 66.6----
2024-05-19 02:00 pm N 17.1 21.0----29.98-0.02 59.2 66.6----
2024-05-19 01:54 pm N 14.0 21.0----29.98- 59.2 66.4----
2024-05-19 01:48 pmNNE 15.9 21.0----29.98- 59.0 66.4----
2024-05-19 01:42 pmNNE 15.0 21.0----29.98- 59.4 66.4----
2024-05-19 01:36 pmNNE 13.0 21.0----29.98- 59.2 66.4----
2024-05-19 01:30 pmNNE 14.0 21.0----29.99- 59.2 66.4----
2024-05-19 01:24 pmNNE 15.0 21.0----29.99- 59.2 66.4----
2024-05-19 01:18 pmNNE 15.9 21.0----29.98-- 66.4----
2024-05-19 01:12 pmNNE 18.1 24.1----29.98-- 66.2----
2024-05-19 01:06 pm N 15.0 22.0----29.98-- 66.2----
2024-05-19 01:00 pmNNE 14.0 21.0----29.99+0.00- 66.2----
2024-05-19 12:54 pmNNE 15.0 22.9----29.99-- 66.2----
2024-05-19 12:48 pmNNE 17.1 24.1----29.99- 59.0 66.2----
2024-05-19 12:42 pm N 12.0 20.0----30.00- 60.3 66.0----
2024-05-19 12:36 pmNNE 14.0 22.0----30.00- 59.2 66.0----
2024-05-19 12:30 pmNNE 15.0 22.0----30.00- 58.8 66.0----
2024-05-19 12:24 pm N 15.9 22.0----30.00- 58.8 66.0----
2024-05-19 12:18 pmNNE 14.0 22.0----30.00- 59.2 66.0----
2024-05-19 12:12 pm N 15.9 22.0----29.99- 58.8 66.0----
2024-05-19 12:06 pmNNE 14.0 22.0----29.99- 59.0 66.0----
2024-05-19 12:00 pmNNE 15.9 24.1----29.98+0.00 58.5 66.0----
2024-05-19 11:54 amNNE 15.9 25.1----29.98- 58.8 65.8----
2024-05-19 11:48 amNNE 15.9 24.1----29.98- 59.0 65.8----
2024-05-19 11:42 am N 19.0 24.1----29.98- 58.6 65.7----
2024-05-19 11:36 amNNE 14.0 24.1----29.98- 59.0 65.7----
2024-05-19 11:30 am N 15.9 21.0----29.98- 58.5 65.7----
2024-05-19 11:24 am N 17.1 21.0----29.99- 58.3 65.7----
2024-05-19 11:18 am-------29.99- 58.1 65.7----
2024-05-19 11:12 am-------29.99- 57.7 65.7----
2024-05-19 11:06 am-------30.00- 57.7 65.5----
2024-05-19 11:00 am-------30.00+0.03 57.9 65.5----
2024-05-19 10:54 am-------29.99- 57.9 65.5----
2024-05-19 10:48 am-------29.99- 57.9 65.5----
2024-05-19 10:42 am-------29.99- 57.9 65.3----
2024-05-19 10:36 am-------29.99- 57.6 65.3----
2024-05-19 10:30 amNNE 14.0 19.0----29.99- 57.9 65.3----
2024-05-19 10:24 amNNE 12.0 19.0----29.99- 58.1 65.3----
2024-05-19 10:18 amNNE 12.0 19.0----29.99- 57.6 65.3----
2024-05-19 10:12 am N 14.0 18.1----29.99- 56.8 65.3----
2024-05-19 10:06 amNNE 12.0 18.1----29.98- 57.2 65.1----
2024-05-19 10:00 amNNE 11.1 18.1----29.99+0.05- 65.1----
2024-05-19 09:54 amNNE 11.1 15.9----29.98-- 65.1----
2024-05-19 09:48 am-------29.98- 56.7 65.1----
2024-05-19 09:42 am-------29.98- 56.7 65.1----
2024-05-19 09:36 am-------29.98- 56.8 65.1----
2024-05-19 09:30 am N 14.0 19.0----29.98-- 65.1----
2024-05-19 09:24 am N 13.0 19.0----29.98-- 65.1----
2024-05-19 09:18 am N 14.0 19.0----29.98-- 65.1----
2024-05-19 09:12 amNNE 11.1 17.1----29.98-- 65.1----
2024-05-19 09:06 am N 14.0 18.1----29.99-- 65.1----
2024-05-19 09:00 am N 13.0 18.1----29.98+0.07- 65.1----
2024-05-19 08:54 amNNE 12.0 17.1----29.98-- 65.1----
2024-05-19 08:48 am N 12.0 17.1----29.98- 56.1 65.3----
2024-05-19 08:42 am N 12.0 15.9----29.98- 56.1 65.3----
2024-05-19 08:36 amNNE 12.0 17.1----29.98- 55.9 65.3----
2024-05-19 08:30 am-------29.98- 55.9-----
2024-05-19 08:24 am-------29.97- 56.1-----
2024-05-19 08:18 am N 11.1 18.1----29.97-- 65.3----
2024-05-19 08:12 am N 12.0 15.9----29.97-- 65.3----
2024-05-19 08:06 am N 12.0 18.1----29.97-- 65.3----
2024-05-19 08:00 amNNE 14.0 18.1----29.97+0.08 55.8 65.3----
2024-05-19 07:54 amNNE 12.0 17.1----29.96- 55.8 65.3----
2024-05-19 07:48 am N 12.0 19.0----29.96- 56.1 65.3----
2024-05-19 07:42 am N 14.0 17.1----29.96- 55.9 65.5----
2024-05-19 07:36 am N 13.0 19.0----29.95- 55.9 65.5----
2024-05-19 07:30 amNNE 14.0 20.0----29.95- 55.9 65.5----
2024-05-19 07:24 am N 14.0 22.0----29.94- 55.9 65.5----
2024-05-19 07:18 am N 15.9 20.0----29.94- 55.6 65.7----
2024-05-19 07:12 am N 15.0 21.0----29.94- 55.8 65.7----
2024-05-19 07:06 am N 15.9 19.0----29.93- 55.6 65.7----
2024-05-19 07:00 am N 15.9 20.0----29.94+0.05------
2024-05-19 06:54 am N 15.0 20.0----29.94-------
2024-05-19 06:48 am N 14.0 18.1----29.94-- 65.8----
2024-05-19 06:42 am N 11.1 17.1----29.94-- 66.0----
2024-05-19 06:36 am N 11.1 18.1----29.93-- 66.2----
2024-05-19 06:30 am N 13.0 17.1----29.93- 56.5 66.2----
2024-05-19 06:24 am N 14.0 17.1----29.93- 56.3 66.2----
2024-05-19 06:18 am N 12.0 17.1----29.92-- 66.2----
2024-05-19 06:12 am N 14.0 20.0----29.92-- 66.2----
2024-05-19 06:06 am N 15.9 19.0----29.92-- 66.2----
2024-05-19 06:00 am-------29.91+0.02------
2024-05-19 05:54 am-------29.91-------
2024-05-19 05:48 am N 13.0 18.1----29.91- 56.3 66.2----
2024-05-19 05:42 am N 11.1 18.1----29.91- 56.3 66.2----
2024-05-19 05:36 am N 14.0 19.0----29.91- 56.1 66.2----
2024-05-19 05:30 am N 15.9 19.0----29.90- 56.3 66.2----
2024-05-19 05:24 am N 12.0 15.9----29.90- 56.5 66.2----
2024-05-19 05:18 am N 13.0 18.1----29.90- 56.7 66.2----
2024-05-19 05:12 am N 14.0 19.0----29.89- 56.8 66.2----
2024-05-19 05:06 am N 13.0 18.1----29.89- 57.0 66.2----
2024-05-19 05:00 am N 12.0 17.1----29.89+0.00 57.2 66.2----
2024-05-19 04:54 am N 12.0 15.9----29.89- 57.2 66.2----
2024-05-19 04:48 am N 12.0 15.9----29.89- 57.4 66.2----
2024-05-19 04:42 am N 12.0 15.9----29.89- 57.4 66.2----
2024-05-19 04:36 am N 13.0 17.1----29.89- 57.4 66.2----
2024-05-19 04:30 am N 11.1 15.0----29.89- 57.4 66.2----
2024-05-19 04:24 am N 12.0 17.1----29.89- 57.4 66.2----
2024-05-19 04:18 am N 13.0 15.9----29.89- 57.2 66.4----
2024-05-19 04:12 am N 12.0 15.9----29.89- 57.2 66.4----
2024-05-19 04:06 am N 9.9 17.1----29.89- 57.2 66.4----
2024-05-19 04:00 am N 12.0 15.0----29.88+0.00 56.8 66.4----
2024-05-19 03:54 am N 12.0 15.0----29.88- 57.0 66.4----
2024-05-19 03:48 am N 11.1 19.0----29.88- 57.2 66.4----
2024-05-19 03:42 amNNE 12.0 15.9----29.88- 57.0 66.4----
2024-05-19 03:36 am N 13.0 15.9----29.88- 57.2 66.4----
2024-05-19 03:30 am N 13.0 18.1----29.88- 57.4 66.4----
2024-05-19 03:24 am N 13.0 17.1----29.88- 57.4 66.4----
2024-05-19 03:18 am N 12.0 15.9----29.89- 57.7 66.4----
2024-05-19 03:12 amNNE 12.0 15.0----29.88- 57.9 66.4----
2024-05-19 03:06 amNNE 8.9 14.0----29.89- 58.1 66.4----
2024-05-19 03:00 amNNE 11.1 14.0----29.89+0.00 58.1 66.4----
2024-05-19 02:54 amNNE 11.1 14.0----29.89- 58.1 66.6----
2024-05-19 02:48 am N 11.1 15.0----29.89- 58.3 66.6----
2024-05-19 02:42 am N 12.0 15.0----29.90- 58.3 66.6----
2024-05-19 02:36 am N 12.0 17.1----29.89- 58.3 66.6----
2024-05-19 02:30 am N 12.0 15.9----29.89- 58.3 66.6----
2024-05-19 02:24 amNNE 9.9 18.1----29.89- 58.6 66.6----
2024-05-19 02:18 am N 11.1 17.1----29.89- 59.0 66.6----
2024-05-19 02:12 am N 13.0 15.9----29.89- 59.2 66.6----
2024-05-19 02:06 am N 11.1 15.0----29.89- 59.2 66.6----
2024-05-19 02:00 am N 11.1 14.0----29.89-0.02 59.2 66.6----
2024-05-19 01:54 am N 11.1 17.1----29.89- 59.4 66.6----
2024-05-19 01:48 am N 11.1 17.1----29.89- 59.0 66.6----
2024-05-19 01:42 am N 11.1 15.9----29.88- 59.0 66.6----
2024-05-19 01:36 am N 12.0 15.9----29.88- 59.2 66.6----
2024-05-19 01:30 am N 12.0 14.0----29.88- 59.2 66.7----
2024-05-19 01:24 amNNE 9.9 17.1----29.88- 59.4 66.7----
2024-05-19 01:18 amNNE 11.1 15.9----29.88- 59.4 66.7----
2024-05-19 01:12 amNNE 8.9 15.0----29.88- 59.5 66.7----
2024-05-19 01:06 amNNE 9.9 15.0----29.88- 59.5 66.7----
2024-05-19 01:00 amNNE 8.9 15.0----29.89-0.03 59.5 66.7----
2024-05-19 12:54 amNNE 9.9 14.0----29.89- 59.5 66.7----
2024-05-19 12:48 amNNE 8.0 15.0----29.89- 59.5 66.7----
2024-05-19 12:42 amNNE 8.9 13.0----29.90- 59.4 66.7----
2024-05-19 12:36 amNNE 9.9 13.0----29.90- 59.4 66.7----
2024-05-19 12:30 amNNE 9.9 13.0----29.89- 59.4 66.7----
2024-05-19 12:24 am N 8.9 14.0----29.90- 59.5 66.7----
2024-05-19 12:18 am N 9.9 15.0----29.90- 59.5 66.7----
2024-05-19 12:12 amNNE 11.1 14.0----29.89- 59.5 66.7----
2024-05-19 12:06 amNNE 8.9 13.0----29.89- 59.4 66.7----
2024-05-19 12:00 amNNE 8.9 15.9----29.90+0.00 59.5 66.7----
2024-05-18 11:54 pmNNE 12.0 15.9----29.90- 59.4 66.7----
2024-05-18 11:48 pm NE 12.0 15.9----29.91- 59.4 66.7----
2024-05-18 11:42 pm NE 13.0 15.9----29.90- 59.2 66.7----
2024-05-18 11:36 pm NE 11.1 15.0----29.90- 59.2 66.7----
2024-05-18 11:30 pm NE 11.1 15.9----29.90- 59.2 66.7----
2024-05-18 11:24 pm NE 11.1 15.0----29.90- 59.2 66.9----
2024-05-18 11:18 pmNNE 12.0 19.0----29.91- 59.4 66.9----
2024-05-18 11:12 pmNNE 11.1 15.9----29.91- 59.5 66.9----
2024-05-18 11:06 pmNNE 12.0 18.1----29.91- 59.5 66.9----
2024-05-18 11:00 pmNNE 13.0 18.1----29.91+0.02 59.9 66.9----
2024-05-18 10:54 pmNNE 13.0 19.0----29.90- 59.9 66.9----
2024-05-18 10:48 pm NE 12.0 18.1----29.89- 60.1 66.9----
2024-05-18 10:42 pmNNE 12.0 17.1----29.91- 60.1 66.9----
2024-05-18 10:36 pm NE 14.0 19.0----29.90- 60.1 66.9----
2024-05-18 10:30 pm NE 11.1 17.1----29.90- 59.9 66.9----
2024-05-18 10:24 pm NE 12.0 17.1----29.91- 59.9 66.9----
2024-05-18 10:18 pmNNE 15.0 19.0----29.91- 59.7 66.9----
2024-05-18 10:12 pmNNE 12.0 17.1----29.91- 59.7 66.9----
2024-05-18 10:06 pmNNE 11.1 15.0----29.92- 59.5 66.9----
2024-05-18 10:00 pmNNE 11.1 14.0----29.92+0.03 59.7 66.9----
2024-05-18 09:54 pmNNE 9.9 13.0----29.92- 60.1 66.9----
2024-05-18 09:48 pmNNE 8.0 15.0----29.92- 60.3 66.9----
2024-05-18 09:42 pm NE 11.1 15.9----29.91- 60.3 66.9----
2024-05-18 09:36 pm NE 11.1 15.9----29.91- 60.3 66.9----
2024-05-18 09:30 pm NE 11.1 15.9----29.91- 60.1 66.9----
2024-05-18 09:24 pm NE 12.0 18.1----29.91- 60.1 66.9----
2024-05-18 09:18 pm NE 12.0 17.1----29.91- 60.1 66.9----
2024-05-18 09:12 pm NE 13.0 18.1----29.90- 60.1 66.9----
2024-05-18 09:06 pm NE 12.0 17.1----29.90- 60.1 66.9----
2024-05-18 09:00 pm NE 12.0 15.9----29.90+0.00 60.1 66.9----
2024-05-18 08:54 pm NE 13.0 18.1----29.90- 60.3 66.9----
2024-05-18 08:48 pm NE 12.0 17.1----29.90- 60.4 66.9----
2024-05-18 08:42 pm NE 13.0 19.0----29.89- 60.3 66.9----
2024-05-18 08:36 pmENE 14.0 19.0----29.89- 60.3 66.9----
2024-05-18 08:30 pmENE 15.9 20.0----29.88- 60.4 66.9----
2024-05-18 08:24 pmENE 12.0 20.0----29.88- 60.4 67.1----
2024-05-18 08:18 pmENE 14.0 21.0----29.88- 60.3 67.1----
2024-05-18 08:12 pmENE 14.0 20.0----29.89- 60.1 67.1----
2024-05-18 08:06 pmENE 15.9 19.0----29.89- 60.1 67.1----
2024-05-18 08:00 pmENE 14.0 19.0----29.89-0.02 60.3 67.1----
2024-05-18 07:54 pm NE 13.0 19.0----29.90- 60.3 67.1----
2024-05-18 07:48 pmENE 14.0 17.1----29.89- 60.3 67.1----
2024-05-18 07:42 pm NE 12.0 17.1----29.90- 60.3 67.1----
2024-05-18 07:36 pm NE 12.0 17.1----29.90- 60.3 67.1----
2024-05-18 07:30 pm NE 8.9 18.1----29.90- 60.4 67.1----
2024-05-18 07:24 pmENE 11.1 15.0----29.91- 60.3 67.1----
2024-05-18 07:00 pm NE 12.0 19.0----29.89-0.02- 67.1----
2024-05-18 06:54 pm NE 9.9 15.9----29.90-- 67.1----